Dennison, MN

5:04 AM CST on January 19, 2017 (GMT -0600)
Stanton

Weather History for KSYN - November, 2012

Change the Weather History Date:

Thursday, November 22, 2012

  Actual Average (KLVN) Record (KLVN)
Temperature  
Mean Temperature 44 °F -  
Max Temperature 60 °F 37 °F 59 °F (1998)
Min Temperature 26 °F 21 °F 2 °F (1981)
Degree Days  
Heating Degree Days 22    
Moisture  
Dew Point 35 °F    
Average Humidity 65    
Maximum Humidity 84    
Minimum Humidity 46    
Precipitation  
Precipitation 0.00 in - - ()
Sea Level Pressure  
Sea Level Pressure 29.75 in    
Wind  
Wind Speed 16 mph (WSW)    
Max Wind Speed 29 mph    
Max Gust Speed 39 mph    
Visibility 10 miles    
Events Rain , Snow    
Averages and records for this station are not official NWS values.
T = Trace of Precipitation, MM = Missing Value Source: NWS Daily Summary

Daily Weather History Graph

Daily Weather History Graph

Search for Another Location

Airport or City:

Trip Planner

Search our weather history database for the weather conditions in past years. The results will help you decide how hot, cold, wet, or windy it might be!

Date:

Astronomy

Nov. 22, 2012 Rise Set
Actual Time 7:18 AM CST 4:38 PM CST
Civil Twilight 6:46 AM CST 5:10 PM CST
Nautical Twilight 6:10 AM CST 5:46 PM CST
Astronomical Twilight 5:35 AM CST 6:20 PM CST
Moon 1:34 PM CST (11/22) 1:26 AM CST (11/22)
Length of Visible Light 10h 24m
Length of Day
9h 20m
Waxing Gibbous, 71% of the Moon is Illuminated
Nov 22
Waxing Gibbous
Nov 28
Full
Dec 6
Last Quarter
Dec 13
New
Dec 19
First Quarter

Hourly Weather History & Observations

Time (CST) Temp. Windchill Dew Point Humidity Pressure Visibility Wind Dir Wind Speed Gust Speed Precip Events Conditions
12:12 AM 54.9 °F - 39.9 °F 57% 29.71 in 10.0 mi South 15.0 mph 18.4 mph N/A   Clear
12:32 AM 55.6 °F - 40.1 °F 56% 29.70 in 10.0 mi South 12.7 mph 20.7 mph N/A   Clear
12:53 AM 55.4 °F - 40.1 °F 56% 29.70 in 10.0 mi South 13.8 mph 17.3 mph N/A   Clear
1:12 AM 54.9 °F - 40.1 °F 58% 29.69 in 10.0 mi South 12.7 mph 20.7 mph N/A   Clear
1:32 AM 55.2 °F - 40.1 °F 57% 29.69 in 10.0 mi South 15.0 mph 20.7 mph N/A   Clear
1:53 AM 54.0 °F - 39.7 °F 59% 29.68 in 10.0 mi South 13.8 mph 19.6 mph N/A   Clear
2:12 AM 54.0 °F - 39.9 °F 59% 29.67 in 10.0 mi South 12.7 mph 19.6 mph N/A   Clear
2:32 AM 54.1 °F - 39.7 °F 58% 29.66 in 10.0 mi South 13.8 mph 21.9 mph N/A   Clear
2:52 AM 53.4 °F - 39.7 °F 60% 29.65 in 10.0 mi South 15.0 mph - N/A   Clear
3:12 AM 53.1 °F - 40.1 °F 61% 29.64 in 10.0 mi South 15.0 mph 20.7 mph N/A   Clear
3:32 AM 52.9 °F - 40.1 °F 62% 29.64 in 10.0 mi South 13.8 mph 20.7 mph N/A   Clear
3:52 AM 52.2 °F - 40.1 °F 64% 29.63 in 10.0 mi South 12.7 mph - N/A   Clear
4:12 AM 52.0 °F - 39.9 °F 63% 29.63 in 10.0 mi South 11.5 mph 19.6 mph N/A   Clear
4:33 AM 51.8 °F - 39.9 °F 64% 29.64 in 10.0 mi South 11.5 mph 19.6 mph N/A   Clear
4:52 AM 51.8 °F - 39.7 °F 63% 29.64 in 10.0 mi South 11.5 mph 18.4 mph N/A   Clear
5:12 AM 50.5 °F - 39.6 °F 66% 29.64 in 10.0 mi South 11.5 mph - N/A   Clear
5:33 AM 50.2 °F - 39.6 °F 67% 29.64 in 10.0 mi SSW 9.2 mph - N/A   Clear
5:52 AM 50.0 °F - 39.6 °F 67% 29.63 in 10.0 mi South 11.5 mph - N/A   Clear
6:12 AM 49.6 °F - 39.6 °F 68% 29.63 in 10.0 mi South 10.4 mph 17.3 mph N/A   Clear
6:33 AM 49.1 °F - 39.6 °F 70% 29.63 in 10.0 mi South 10.4 mph - N/A   Clear
6:52 AM 49.1 °F - 39.6 °F 70% 29.63 in 10.0 mi South 9.2 mph - N/A   Clear
7:12 AM 48.9 °F - 39.4 °F 70% 29.63 in 10.0 mi South 10.4 mph - N/A   Clear
7:32 AM 48.7 °F - 39.6 °F 71% 29.63 in 10.0 mi South 12.7 mph 16.1 mph N/A   Clear
7:52 AM 49.3 °F - 40.1 °F 71% 29.63 in 10.0 mi SSW 9.2 mph 17.3 mph N/A   Clear
8:12 AM 50.2 °F - 40.3 °F 69% 29.63 in 10.0 mi SSW 8.1 mph - N/A   Clear
8:32 AM 51.3 °F - 41.0 °F 68% 29.63 in 10.0 mi SSW 11.5 mph - N/A   Clear
8:52 AM 52.7 °F - 41.7 °F 66% 29.63 in 10.0 mi SSW 12.7 mph - N/A   Clear
9:13 AM 55.0 °F - 41.9 °F 61% 29.63 in 10.0 mi SSW 19.6 mph - N/A   Clear
9:32 AM 55.0 °F - 42.1 °F 62% 29.63 in 10.0 mi SW 12.7 mph - N/A   Clear
9:52 AM 56.7 °F - 41.9 °F 58% 29.63 in 10.0 mi SW 16.1 mph - N/A   Clear
10:13 AM 57.4 °F - 41.2 °F 55% 29.62 in 10.0 mi SW 13.8 mph - N/A   Clear
10:32 AM 57.9 °F - 41.0 °F 53% 29.63 in 10.0 mi SW 11.5 mph - N/A   Clear
10:52 AM 59.0 °F - 41.0 °F 51% 29.63 in 10.0 mi WSW 12.7 mph - N/A   Clear
11:13 AM 59.4 °F - 40.1 °F 49% 29.63 in 10.0 mi WSW 11.5 mph 16.1 mph N/A   Clear
11:32 AM 60.6 °F - 39.9 °F 46% 29.63 in 10.0 mi SW 11.5 mph - N/A   Clear
11:52 AM 59.4 °F - 39.9 °F 49% 29.62 in 10.0 mi West 10.4 mph - N/A   Clear
12:13 PM 59.5 °F - 39.9 °F 48% 29.63 in 10.0 mi West 17.3 mph - N/A   Clear
12:32 PM 56.7 °F - 37.4 °F 49% 29.64 in 10.0 mi West 18.4 mph 23.0 mph N/A   Clear
12:52 PM 54.0 °F - 36.5 °F 52% 29.66 in 10.0 mi West 20.7 mph 26.5 mph N/A   Clear
1:13 PM 52.7 °F - 36.9 °F 55% 29.66 in 10.0 mi West 17.3 mph 21.9 mph N/A   Clear
1:32 PM 53.6 °F - 36.9 °F 53% 29.67 in 10.0 mi WNW 21.9 mph - N/A   Clear
1:52 PM 52.7 °F - 37.2 °F 56% 29.69 in 10.0 mi West 19.6 mph 27.6 mph N/A   Clear
2:13 PM 48.4 °F - 35.6 °F 61% 29.71 in 10.0 mi West 19.6 mph 26.5 mph N/A   Clear
2:32 PM 46.6 °F - 34.7 °F 63% 29.73 in 10.0 mi West 27.6 mph 35.7 mph N/A   Mostly Cloudy
2:52 PM 43.5 °F 33.5 °F 33.3 °F 67% 29.76 in 10.0 mi WNW 28.8 mph 33.4 mph N/A   Overcast
3:13 PM 42.4 °F 32.4 °F 32.2 °F 67% 29.77 in 10.0 mi NW 26.5 mph 35.7 mph N/A   Overcast
3:32 PM 41.9 °F 32.1 °F 32.0 °F 68% 29.78 in 10.0 mi WNW 24.2 mph 33.4 mph N/A   Overcast
3:52 PM 41.5 °F 32.9 °F 32.0 °F 69% 29.80 in 10.0 mi WNW 18.4 mph 25.3 mph N/A   Overcast
4:13 PM 40.6 °F 30.7 °F 32.0 °F 71% 29.81 in 10.0 mi WNW 23.0 mph 29.9 mph N/A   Overcast
4:32 PM 40.1 °F 29.7 °F 31.3 °F 71% 29.82 in 10.0 mi WNW 24.2 mph 31.1 mph N/A   Overcast
4:52 PM 38.7 °F 27.5 °F 31.1 °F 74% 29.83 in 10.0 mi West 25.3 mph 33.4 mph N/A Rain Light Rain
5:13 PM 36.5 °F 26.0 °F 32.0 °F 84% 29.86 in 10.0 mi WNW 19.6 mph 27.6 mph N/A Rain Light Rain
5:32 PM 36.0 °F 24.4 °F 30.9 °F 82% 29.88 in 10.0 mi WNW 23.0 mph 32.2 mph N/A Snow Light Snow
5:52 PM 35.6 °F 23.2 °F 30.6 °F 82% 29.88 in 10.0 mi WNW 26.5 mph 29.9 mph N/A Snow Light Snow
6:13 PM 35.2 °F 23.2 °F 29.5 °F 80% 29.89 in 10.0 mi WNW 24.2 mph 38.0 mph N/A Rain Light Rain
6:32 PM 34.9 °F 21.8 °F 28.6 °F 78% 29.91 in 10.0 mi WNW 28.8 mph 34.5 mph N/A Rain Light Rain
6:53 PM 33.8 °F 20.3 °F 28.4 °F 81% 29.92 in 4.0 mi WNW 28.8 mph 39.1 mph N/A Snow Light Snow
7:12 PM 33.8 °F 21.6 °F 28.4 °F 81% 29.92 in 10.0 mi WNW 23.0 mph 29.9 mph N/A Snow Light Snow
7:32 PM 34.2 °F 21.0 °F 27.9 °F 78% 29.93 in 10.0 mi WNW 27.6 mph 34.5 mph N/A   Overcast
7:53 PM 34.2 °F 21.5 °F 26.1 °F 72% 29.93 in 10.0 mi WNW 25.3 mph 33.4 mph N/A   Overcast
8:12 PM 33.8 °F 21.0 °F 24.8 °F 70% 29.93 in 10.0 mi WNW 25.3 mph 34.5 mph N/A   Overcast
8:32 PM 33.8 °F 22.5 °F 25.3 °F 71% 29.94 in 10.0 mi WNW 19.6 mph 29.9 mph N/A   Overcast
8:53 PM 33.8 °F 21.6 °F 24.8 °F 70% 29.94 in 10.0 mi WNW 23.0 mph 32.2 mph N/A   Mostly Cloudy
9:12 PM 33.3 °F 20.9 °F 25.7 °F 74% 29.94 in 10.0 mi West 23.0 mph 31.1 mph N/A   Overcast
9:32 PM 32.5 °F 19.4 °F 23.9 °F 70% 29.95 in 10.0 mi WNW 25.3 mph 33.4 mph N/A   Overcast
9:53 PM 32.2 °F 19.4 °F 24.1 °F 72% 29.95 in 10.0 mi WNW 23.0 mph 28.8 mph N/A   Overcast
10:12 PM 32.0 °F 18.1 °F 23.9 °F 72% 29.95 in 10.0 mi WNW 27.6 mph 36.8 mph N/A   Overcast
10:32 PM 31.1 °F 17.4 °F 22.3 °F 70% 29.95 in 10.0 mi WNW 25.3 mph 35.7 mph N/A   Overcast
10:53 PM 30.6 °F 17.0 °F 21.7 °F 70% 29.95 in 10.0 mi WNW 24.2 mph 34.5 mph N/A   Overcast
11:12 PM 29.1 °F 14.2 °F 19.6 °F 68% 29.96 in 10.0 mi WNW 27.6 mph 36.8 mph N/A   Overcast
11:32 PM 27.5 °F 12.9 °F 17.2 °F 65% 29.97 in 10.0 mi WNW 24.2 mph 34.5 mph N/A   Overcast
11:53 PM 26.6 °F 11.4 °F 16.2 °F 65% 29.98 in 10.0 mi WNW 25.3 mph 31.1 mph N/A   Overcast